Location: *
(35.8942°N, 23.3025°E)
Time: 23:08:35
(UTC+00:00)

CZ-4B R/B - Pass Details

Date: 21 September 2021
Orbit: 703 x 802 km, 98.9° (Epoch: 22 October)

Event Time Altitude Azimuth Distance (km) Brightness Sun altitude
Rises 02:42:58 0° 2° (N) 3,245 7.0 -19.0°
Reaches altitude 10° 02:45:26 10° 354° (N) 2,329 6.1 -18.5°
Maximum altitude 02:50:01 34° 290° (WNW) 1,276 4.2 -17.6°
Enters shadow 02:51:20 30° 261° (W) 1,395 4.3 -17.4°
